{"data":{"norad_id":49310,"epoch":"2026-09-19T23:28:58.994112Z","epoch_age_seconds":70562,"freshness":"FRESH","line1":"1 49310U 21090AH  26262.97846058  .00000012  00000+0 -18802-5 0  9991","line2":"2 49310  87.9144 255.5672 0002505  90.4703 269.6717 13.20818286242341","mean_motion":13.20818286,"eccentricity":0.0002505,"inclination_deg":87.9144,"raan_deg":255.5672,"arg_perigee_deg":90.4703,"mean_anomaly_deg":269.6717,"bstar":-1.8802e-6,"rev_number":24234,"period_min":109.02332404565,"perigee_km":1179.702327981,"apogee_km":1183.4897542346,"semimajor_km":7559.7330411078,"source":"CELESTRAK","updated_at":"2026-09-20T09:00:44.675314Z"}}